loading
|

ATLAS CENTAUR 2 DEB, 19638

Orbit data source: Space-Track

ATLAS CENTAUR 2 DEB, 19638 is space debris in LEO originally from a launch on Wed, 27 Nov 1963 UTC launched from the Air Force Eastern Test Range (AFETR). Debris objects in space refer to the collection of defunct objects orbiting the Earth. Examples of debris include non-operational satellites, rocket bodies, and fragments generated from explosions, collisions, or faulty payload assembly.

Loading next visibility...
Next conjunction unknown
Loading greatness...
ATLAS CENTAUR 2 DEB details
Identifier
19638, 1963-047S
Orbit
LEO
Last TLE update10 hours ago
Origin
Flag of USNASA LeRC (US)
ManufacturerUnknown
MissionSpacecraft
Bus & MotorUnknown bus, Unknown motor
MassUnknown
Launch date (UTC)
1963-11-27 (61 years ago)
Launch vehicleUnknown
Launch site
Air Force Eastern Test Range (AFETR)
Object type
Payload
Rocket body
Debris
Shape & HBRUnknown
Radar Cross SectionSmall (<0.1 m²)

Expand to show TLE details & history

TLE from 10 hours ago
0 ATLAS CENTAUR 2 DEB
1 19638U 63047S   24288.21030799 -.00006123  00000-0 -18646-1 0  9992
2 19638  31.0014 293.4661 0637093 206.3774 241.8633 12.51870778497919
Epoch: 2024-10-14T05:02Z
Definitive object data (Epoch: 2024-10-14T05:02:50.61Z)
Latitude30.78987°
Longitude-84.74896°
Altitude1,715.33 km
Speed6.907 km/s
True Right ascension00h 56m 48s
True Declination30° 39' 24"
Sunlit
Object was in full shadow at TLE epoch
Predictive object data (real-time)
Latitude30.81573°
Longitude-68.25381°
Altitude1,609.901 km
Speed7 km/s
Apparent Right ascension00h 07m 06s
Apparent Declination0° 00' 48"
Sunlit
Object is in full shadow
Predictive observer data (real-time)
Local Sidereal Time09:16:26
Azimuth304.855° NW
Elevation-34.32°
Doppler factor1
Orbital elements
Apogee1,959.459 km
Perigee960.723 km
Semi-major axis7,838.228 km
Eccentricity0.0637093
Inclination31.0014°
RAAN293.4661°
Arg. of periapsis206.3774°
True anomaly235.67085°
Mean anomaly241.8633°
Eccentric anomaly238.74287°
Mean motion3.12764 °/min
BSTAR-0.018646
Period115.1 mins
No data available

ATLAS CENTAUR 2 DEB Visibility forecast

Observer location: 39.9160978°, -105.1181434

Span
Click to sort rows by Start time (UTC) header in descending order
Start Az.
Max El. time (UTC)
Max El. Az.
Max El.
End time (UTC)
End Az.
13 mins2024-10-15 01:43:21.650Z178.717° S2024-10-15 01:50:21.650Z141.712° SSE16.321°2024-10-15 01:56:21.650Z110.238° ESE
18 mins2024-10-15 03:43:21.650Z216.476° SW2024-10-15 03:52:21.650Z160.127° S31.237°2024-10-15 04:01:21.650Z99.39° ESE
18 mins2024-10-15 05:46:21.650Z243.262° WSW2024-10-15 05:55:21.650Z179.307° S38.09°2024-10-15 06:04:21.650Z104.918° ESE
16 mins2024-10-15 07:50:21.650Z257.104° W2024-10-15 07:58:21.650Z195.457° SSW35.618°2024-10-15 08:06:21.650Z125.267° SE
12 mins2024-10-15 09:54:21.650Z254.682° W2024-10-15 10:00:21.650Z211.434° SW21.984°2024-10-15 10:06:21.650Z161.926° S